Wind_Speed
47 47 48 47 48 48 47 47 47 47 47 47 48 48 49 49 49 49 49 48 48 48 49 50 50 51 51 51 50 50 49 48 48 49 49 49 49 49
49 49 49 50 50 49 48 48 48 48 47 47 48 48 48 49 49 49 49 49 49 49 49 50 50 51 50 51 50 50 49 49 48 48 49 49 49 49
50 50 50 50 49 48 48 48 47 47 48 47 48 48 49 49 49 50 50 50 50 50 50 50 50 50 49 50 50 50 51 50 50 50 49 49 49 49
50 50 49 49 48 48 48 48 47 47 47 47 47 47 48 49 49 50 51 50 50 51 51 51 50 50 50 50 50 50 50 50 51 52 51 50 50 50
50 49 49 48 48 48 47 47 47 47 47 47 47 47 48 49 49 49 49 49 50 50 51 52 52 51 51 51 51 51 50 50 50 50 51 51 51 51
48 48 48 49 49 48 48 47 47 47 47 47 47 47 47 48 48 48 49 49 49 49 50 51 51 51 51 51 51 50 49 49 49 49 49 49 50 50
48 48 49 49 49 48 48 47 47 47 47 47 47 47 47 47 48 48 48 48 48 48 48 49 49 50 50 50 50 50 49 48 48 48 48 48 48 48
48 48 48 48 47 47 47 47 47 47 47 47 47 47 47 47 47 47 47 47 47 47 48 48 49 49 49 49 49 49 49 49 49 49 49 48 48 47
46 47 47 46 46 46 46 46 47 47 46 46 46 46 46 46 46 46 46 46 46 47 47 47 47 48 48 48 48 48 49 50 50 50 50 49 49 49
45 45 45 45 45 45 45 45 45 45 45 45 45 45 45 46 45 45 46 45 46 46 46 46 47 47 47 47 47 48 49 49 50 50 50 51 50 50
44 44 44 44 44 44 43 43 43 43 43 43 43 43 43 43 44 44 44 44 44 44 45 46 46 46 46 46 47 47 48 48 49 49 50 50 50 51
42 42 42 42 43 43 42 41 41 41 42 42 42 42 41 41 42 42 43 43 43 43 43 44 45 46 46 46 46 46 47 47 48 48 48 49 49 49
41 40 41 41 41 40 40 40 40 40 40 40 40 40 40 40 41 41 41 42 42 42 42 42 43 44 45 45 45 46 46 46 46 47 48 48 48 49
39 39 39 39 38 38 38 38 38 38 38 38 38 39 39 39 39 39 40 40 41 40 40 40 41 42 43 43 44 45 46 46 47 47 48 48 48 49
38 38 38 37 37 36 36 36 37 37 37 37 38 37 37 37 37 37 38 38 38 38 38 39 39 40 41 42 42 43 44 45 46 47 48 48 48 48
36 36 36 36 35 34 34 35 35 35 36 36 36 36 36 35 35 35 35 36 36 36 37 37 38 39 40 40 41 42 43 43 44 45 46 47 47 48
35 35 35 34 34 33 33 34 34 35 35 35 34 34 34 34 34 35 35 35 35 35 36 36 37 38 39 39 39 40 41 42 43 43 44 44 46 47
34 34 33 33 33 33 34 34 34 34 34 33 33 33 33 34 34 34 34 34 34 34 35 36 38 38 38 38 39 40 40 41 41 41 42 42 42 43
33 33 32 32 32 33 33 33 33 33 33 33 32 32 32 33 33 33 33 33 34 34 35 36 36 36 37 37 38 39 39 39 39 39 39 39 40 40
31 31 31 31 31 31 32 32 32 32 32 32 31 32 32 32 32 32 32 32 33 33 34 34 35 36 36 36 36 36 37 37 37 37 36 37 37 37
29 29 29 29 29 30 30 30 30 31 31 31 31 32 32 31 31 31 31 31 32 32 33 33 34 34 35 35 34 34 35 35 35 35 34 33 33 34
28 28 28 28 28 28 29 29 29 29 29 30 30 31 31 31 30 30 30 30 31 31 32 32 33 33 33 33 33 33 33 33 33 33 33 32 32 32
28 28 28 28 28 28 28 28 28 28 28 29 30 30 29 29 29 29 29 29 30 30 30 30 30 30 31 31 31 31 31 31 31 30 31 31 31 32
Wind_Direction
275 275 276 276 276 277 277 277 277 276 274 273 273 272 272 271 269 269 268 268 268 267 266 266 265 265 266 266 265 264 263 264 265 265 265 264 264 264
275 275 276 276 276 276 277 277 277 276 275 273 272 272 271 270 269 269 269 268 268 267 267 266 265 266 266 265 264 265 265 264 265 266 266 265 264 263
275 275 275 276 276 276 276 277 277 276 275 273 272 271 270 269 269 269 269 268 267 267 267 267 266 265 265 264 264 264 263 264 265 265 265 265 265 263
275 275 275 275 275 275 276 277 276 276 275 274 273 272 271 270 270 269 269 268 268 268 267 266 265 265 265 264 264 264 264 265 264 264 263 264 264 264
274 274 274 274 274 275 276 276 276 276 275 275 274 273 272 271 270 270 269 269 268 268 267 266 266 265 265 264 264 264 265 265 264 264 264 264 264 264
273 273 273 274 274 274 275 276 277 276 275 275 274 274 274 273 272 271 270 270 269 269 268 267 266 266 265 265 265 264 264 264 263 264 264 264 264 263
273 273 274 274 274 274 274 275 275 275 275 275 274 274 275 274 273 272 272 271 270 269 268 267 266 266 265 265 265 264 263 262 263 263 264 265 264 263
274 274 274 274 274 274 274 274 274 274 275 275 275 275 275 274 273 272 273 272 271 270 269 268 267 266 266 265 265 264 264 263 263 263 263 263 264 264
274 274 274 274 274 274 274 274 275 275 275 275 276 276 275 274 273 273 273 273 272 271 270 269 268 267 266 265 265 264 264 264 264 264 263 263 264 264
275 275 275 274 274 274 274 274 275 275 275 275 276 276 276 276 275 274 273 273 272 272 271 269 268 267 266 266 266 266 265 265 264 264 264 264 264 264
276 275 275 274 274 274 274 274 274 275 275 275 276 276 276 276 275 274 274 273 273 273 271 270 269 267 266 266 266 266 266 266 265 265 265 266 266 265
276 275 275 275 274 274 274 274 274 275 275 275 275 275 275 275 275 275 275 276 275 274 272 271 269 268 267 266 266 266 266 266 266 266 266 267 267 267
275 275 275 275 274 274 273 274 275 275 275 274 274 274 275 275 275 276 276 277 277 276 275 272 271 270 269 267 267 268 267 266 266 267 267 267 268 268
275 275 275 275 274 275 274 274 274 274 274 274 275 275 275 275 276 276 277 277 278 278 276 275 274 273 272 271 270 269 268 267 267 267 268 268 268 268
275 274 275 275 275 275 275 274 274 274 274 275 276 275 276 276 276 276 276 277 278 278 277 276 276 276 275 274 272 271 269 269 269 269 268 267 267 268
274 274 274 274 275 275 275 274 275 275 275 276 277 276 276 276 276 276 277 277 278 277 277 278 278 278 277 276 275 273 272 272 271 270 269 268 268 268
273 273 273 273 274 275 275 275 276 277 277 277 277 277 276 276 277 277 277 277 278 278 278 278 279 280 279 278 277 276 275 274 274 272 270 269 270 269
273 274 273 273 274 274 275 275 276 278 278 277 278 277 277 277 278 278 278 278 279 279 280 280 280 280 279 279 279 278 278 276 275 274 273 271 270 269
274 273 273 273 274 274 275 276 277 277 278 277 277 278 278 278 279 279 279 280 280 281 282 282 282 282 281 280 280 279 280 278 277 276 275 272 271 269
274 273 274 274 275 275 275 276 276 276 276 276 277 278 279 279 279 279 280 281 281 283 284 285 285 284 283 283 282 281 280 280 278 277 275 273 271 270
273 274 275 276 276 275 276 276 276 276 276 276 277 278 279 279 279 280 281 282 283 285 287 288 287 286 285 284 283 282 282 281 280 279 276 272 271 270
273 274 276 277 276 276 276 276 275 276 277 277 278 278 279 279 279 280 281 283 285 287 288 288 288 287 287 288 286 283 282 281 280 280 278 275 273 271
273 274 276 276 276 276 276 276 276 276 278 279 279 279 278 278 279 280 282 284 286 288 289 290 289 288 289 290 288 285 283 281 281 279 278 277 276 275
Height
5688 5687 5685 5684 5683 5682 5680 5679 5678 5678 5678 5676 5674 5673 5672 5672 5672 5672 5672 5672 5671 5672 5672 5672 5672 5673 5674 5674 5675 5676 5677 5677 5678 5679 5680 5681 5682 5683
5675 5674 5672 5671 5670 5669 5667 5666 5665 5664 5664 5663 5661 5660 5659 5659 5658 5658 5659 5659 5658 5658 5658 5659 5659 5660 5660 5661 5662 5663 5664 5664 5665 5666 5666 5668 5668 5669
5661 5660 5659 5658 5656 5655 5654 5653 5651 5650 5650 5650 5648 5647 5646 5645 5645 5645 5645 5645 5645 5645 5645 5645 5645 5645 5646 5647 5648 5649 5650 5650 5651 5652 5652 5653 5654 5656
5647 5646 5645 5644 5643 5642 5641 5640 5638 5637 5636 5636 5635 5633 5633 5632 5631 5631 5630 5630 5631 5631 5630 5631 5631 5631 5632 5633 5634 5634 5635 5636 5637 5637 5638 5640 5640 5641
5634 5633 5632 5631 5630 5629 5627 5626 5625 5624 5622 5622 5622 5620 5619 5618 5617 5617 5616 5616 5616 5616 5616 5616 5617 5617 5618 5618 5619 5620 5620 5622 5622 5623 5623 5624 5626 5627
5620 5619 5618 5617 5616 5615 5614 5613 5612 5610 5609 5608 5608 5607 5606 5604 5603 5602 5602 5602 5602 5602 5601 5602 5602 5602 5603 5604 5605 5605 5606 5606 5607 5608 5609 5610 5611 5612
5606 5606 5605 5604 5603 5601 5601 5600 5598 5597 5596 5595 5594 5593 5592 5591 5589 5588 5588 5588 5588 5587 5587 5587 5588 5588 5588 5589 5589 5590 5591 5592 5593 5594 5595 5596 5597 5597
5593 5592 5591 5590 5589 5588 5587 5586 5585 5584 5583 5582 5581 5580 5578 5577 5575 5575 5574 5574 5574 5574 5572 5573 5573 5573 5573 5574 5575 5575 5576 5577 5578 5579 5580 5581 5582 5583
5579 5578 5577 5576 5575 5574 5573 5572 5571 5570 5569 5568 5567 5566 5565 5563 5562 5561 5560 5559 5559 5559 5558 5558 5557 5558 5558 5559 5559 5560 5561 5562 5563 5564 5565 5566 5567 5569
5565 5564 5563 5562 5561 5560 5560 5559 5558 5557 5556 5555 5554 5552 5550 5549 5548 5547 5545 5545 5544 5544 5543 5543 5543 5543 5544 5544 5545 5546 5546 5547 5548 5549 5550 5551 5552 5553
5551 5551 5550 5549 5548 5547 5547 5546 5545 5544 5542 5541 5540 5538 5537 5535 5534 5532 5531 5531 5530 5530 5528 5528 5529 5529 5529 5530 5530 5531 5531 5532 5533 5534 5535 5536 5536 5537
5539 5538 5537 5536 5535 5534 5533 5533 5533 5531 5530 5529 5527 5526 5524 5523 5521 5520 5518 5517 5517 5517 5516 5515 5514 5514 5515 5516 5515 5516 5516 5517 5518 5518 5519 5520 5520 5521
5526 5525 5524 5523 5522 5521 5521 5520 5520 5518 5517 5516 5515 5514 5512 5511 5509 5508 5506 5505 5504 5504 5503 5502 5501 5500 5500 5501 5501 5501 5501 5502 5503 5503 5504 5504 5505 5505
5514 5513 5512 5511 5510 5509 5508 5508 5507 5506 5505 5504 5503 5502 5500 5499 5497 5496 5494 5493 5492 5491 5490 5489 5488 5487 5487 5487 5487 5487 5486 5487 5487 5488 5488 5489 5489 5489
5501 5501 5500 5499 5498 5498 5497 5496 5495 5494 5493 5492 5491 5490 5488 5487 5485 5484 5483 5481 5480 5479 5478 5477 5476 5474 5473 5473 5473 5473 5472 5472 5471 5472 5472 5473 5473 5473
5490 5489 5488 5488 5487 5486 5486 5485 5484 5483 5482 5481 5480 5478 5477 5476 5474 5473 5472 5470 5469 5468 5467 5465 5464 5462 5461 5459 5459 5458 5457 5457 5457 5456 5456 5457 5457 5457
5479 5478 5478 5477 5477 5476 5475 5474 5473 5472 5471 5470 5469 5468 5466 5465 5464 5462 5461 5460 5459 5457 5456 5454 5452 5450 5448 5447 5445 5444 5443 5442 5442 5441 5442 5442 5441 5441
5469 5468 5468 5467 5466 5466 5465 5464 5463 5461 5460 5459 5458 5457 5456 5455 5454 5452 5450 5449 5448 5446 5445 5443 5441 5439 5437 5435 5433 5431 5430 5429 5428 5427 5427 5427 5427 5427
5458 5458 5457 5457 5456 5455 5455 5454 5452 5451 5450 5449 5448 5447 5446 5445 5443 5442 5440 5439 5437 5435 5433 5431 5429 5427 5425 5424 5422 5419 5417 5416 5415 5414 5413 5413 5413 5413
5449 5448 5447 5447 5446 5445 5444 5443 5442 5441 5440 5439 5438 5437 5436 5434 5433 5431 5430 5428 5427 5425 5423 5420 5417 5415 5413 5412 5410 5408 5405 5403 5402 5402 5401 5400 5400 5400
5439 5438 5437 5437 5436 5435 5434 5433 5432 5431 5430 5429 5428 5427 5426 5424 5423 5422 5420 5418 5416 5414 5412 5410 5407 5404 5402 5400 5398 5397 5394 5392 5390 5389 5389 5389 5389 5389
5430 5429 5428 5427 5426 5425 5424 5423 5423 5422 5421 5419 5418 5417 5416 5414 5413 5412 5410 5409 5407 5404 5402 5399 5397 5394 5392 5390 5388 5386 5384 5382 5380 5378 5377 5377 5377 5378
5421 5420 5419 5418 5417 5416 5415 5414 5413 5412 5411 5410 5409 5408 5406 5405 5404 5403 5401 5399 5397 5395 5393 5390 5387 5385 5382 5380 5378 5376 5374 5372 5371 5370 5368 5366 5366 5366